Hourly Data Report for July 22, 2013

All times are specified in Local Standard Time (LST). Add 1 hour to adjust for Daylight Saving Time where and when it is observed.

VICTORIA INTL A
BRITISH COLUMBIA

48°38'50.000" N
123°25'33.000" W
19.50 m
1018621
71799
YYJ

Download Data

Hourly Data (July 2013)
Hourly Data Report for July 22, 2013
Temp Definition
°C
Dew Point Temp Definition
°C
Rel Hum Definition
%
Wind Dir Definition
10's deg

Wind Spd Definition
km/h
Visibility Definition
km
Stn Press Definition
kPa
Hmdx Definition


Wind Chill Definition


Weather Definition


TIME
00:00 Legend Double Dagger 13.3 11.4 88 9 3 48.3 101.16     LegendNANA
01:00 Legend Double Dagger 12.9 11.3 90 7 5 48.3 101.17     Clear
02:00 Legend Double Dagger 12.6 11.4 92 8 2 48.3 101.21     LegendNANA
03:00 Legend Double Dagger 11.7 10.5 92 9 3 48.3 101.25     LegendNANA
04:00 Legend Double Dagger 11.8 10.9 94 11 5 48.3 101.27     Clear
05:00 Legend Double Dagger 11.8 10.9 94 11 4 48.3 101.30     LegendNANA
06:00 Legend Double Dagger 12.2 11.3 94 13 9 32.2 101.36     LegendNANA
07:00 Legend Double Dagger 13.9 11.8 87 12 9 32.2 101.43     Mainly Clear
08:00 Legend Double Dagger 14.7 11.5 81 12 12 32.2 101.47     LegendNANA
09:00 Legend Double Dagger 14.8 11.4 80 11 14 48.3 101.51     LegendNANA
10:00 Legend Double Dagger 14.3 11.5 83 13 20 32.2 101.53     Mainly Clear
11:00 Legend Double Dagger 15.0 12.0 82 12 22 32.2 101.55     LegendNANA
12:00 Legend Double Dagger 16.3 11.9 75 12 24 32.2 101.54     LegendNANA
13:00 Legend Double Dagger 17.9 12.6 71 12 20 32.2 101.54     Clear
14:00 Legend Double Dagger 18.6 13.1 70 12 19 32.2 101.54     LegendNANA
15:00 Legend Double Dagger 19.3 13.3 68 13 19 32.2 101.50     LegendNANA
16:00 Legend Double Dagger 20.0 13.3 65 12 18 48.3 101.46     Clear
17:00 Legend Double Dagger 19.5 13.1 66 10 17 48.3 101.41     LegendNANA
18:00 Legend Double Dagger 18.5 12.6 68 11 10 48.3 101.39     LegendNANA
19:00 Legend Double Dagger 17.9 12.4 70 11 7 48.3 101.40     Clear
20:00 Legend Double Dagger 15.7 11.5 76 12 4 48.3 101.40     LegendNANA
21:00 Legend Double Dagger 14.9 11.5 80 7 8 48.3 101.45     LegendNANA
22:00 Legend Double Dagger 14.3 11.3 82 11 4 48.3 101.46     Clear
23:00 Legend Double Dagger 13.3 11.0 86 14 4 48.3 101.48     LegendNANA

Notes on Data Quality.

Legend

  • E = Estimated
  • M = Missing
  • NA = Not Available
  • ‡ = Partner data that is not subject to review by the National Climate Archives
Date modified: